| time (UTC) | temp F | wind direction | speed knots | gust knots | rain 1hr in | rain 24hr in | rain mn in | humidity % | barometer mb |
| 20260906122604 | 71 | 141 | 2.6 | 7.0 | 0.00 | 0.00 | 0.00 | 57 | 1023.9 |
| 20260906121605 | 71 | 191 | 4.3 | 10.4 | 0.00 | 0.00 | 0.00 | 56 | 1024.0 |
| 20260906121104 | 71 | 116 | 2.6 | 10.4 | 0.00 | 0.00 | 0.00 | 56 | 1024.0 |
| 20260906110104 | 69 | 158 | 3.5 | 6.1 | 0.00 | 0.00 | 0.00 | 60 | 1024.6 |
| 20260906104604 | 69 | 142 | 5.2 | 8.7 | 0.00 | 0.00 | 0.00 | 61 | 1024.8 |
| 20260906104104 | 69 | 181 | 5.2 | 8.7 | 0.00 | 0.00 | 0.00 | 60 | 1025.0 |
| 20260906103105 | 68 | 173 | 5.2 | 8.7 | 0.00 | 0.00 | 0.00 | 62 | 1025.1 |
| 20260906102604 | 68 | 131 | 4.3 | 7.8 | 0.00 | 0.00 | 0.00 | 63 | 1025.1 |
| 20260906102105 | 68 | 192 | 3.5 | 7.8 | 0.00 | 0.00 | 0.00 | 63 | 1025.1 |
| 20260906101104 | 68 | 171 | 4.3 | 8.7 | 0.00 | 0.00 | 0.00 | 63 | 1025.4 |
| 20260906100104 | 68 | 165 | 3.5 | 10.4 | 0.00 | 0.00 | 0.00 | 62 | 1025.4 |
| 20260906095604 | 69 | 160 | 5.2 | 8.7 | 0.00 | 0.00 | 0.00 | 62 | 1025.5 |
| 20260906095104 | 68 | 213 | 3.5 | 7.8 | 0.00 | 0.00 | 0.00 | 64 | 1025.4 |
| 20260906094105 | 68 | 118 | 2.6 | 8.7 | 0.00 | 0.00 | 0.00 | 65 | 1025.5 |
| 20260906093105 | 67 | 150 | 4.3 | 8.7 | 0.00 | 0.00 | 0.00 | 64 | 1025.6 |
| 20260906092603 | 67 | 163 | 5.2 | 10.4 | 0.00 | 0.00 | 0.00 | 64 | 1025.6 |
| 20260906092105 | 67 | 177 | 5.2 | 8.7 | 0.00 | 0.00 | 0.00 | 65 | 1025.7 |
| 20260906090103 | 67 | 191 | 3.5 | 6.1 | 0.00 | 0.00 | 0.00 | 68 | 1025.9 |
| 20260906082606 | 65 | 166 | 4.3 | 8.7 | 0.00 | 0.00 | 0.00 | 70 | 1026.1 |
| 20260906082104 | 65 | 186 | 2.6 | 7.0 | 0.00 | 0.00 | 0.00 | 73 | 1026.1 |
| 20260906081604 | 65 | 183 | 2.6 | 7.8 | 0.00 | 0.00 | 0.00 | 72 | 1026.1 |
| 20260906081104 | 64 | 160 | 2.6 | 10.4 | 0.00 | 0.00 | 0.00 | 73 | 1026.1 |
| 20260906065603 | 61 | 196 | 0.9 | 2.6 | 0.00 | 0.00 | 0.00 | 82 | 1026.2 |
| 20260906065104 | 61 | 196 | 1.7 | 5.2 | 0.00 | 0.00 | 0.00 | 83 | 1026.2 |
| 20260906064104 | 60 | 195 | 1.7 | 4.3 | 0.00 | 0.00 | 0.00 | 83 | 1026.1 |
| 20260906063604 | 60 | 197 | 1.7 | 4.3 | 0.00 | 0.00 | 0.00 | 83 | 1026.1 |
| 20260906063105 | 60 | 197 | 2.6 | 4.3 | 0.00 | 0.00 | 0.00 | 84 | 1026.1 |
| 20260906062603 | 59 | 198 | 0.9 | 4.3 | 0.00 | 0.00 | 0.00 | 85 | 1026.1 |
| 20260906062104 | 59 | 199 | 1.7 | 2.6 | 0.00 | 0.00 | 0.00 | 85 | 1026.1 |
| 20260906060103 | 58 | 200 | 1.7 | 2.6 | 0.00 | 0.00 | 0.00 | 88 | 1025.9 |
| 20260906055606 | 58 | 200 | 1.7 | 2.6 | 0.00 | 0.00 | 0.00 | 88 | 1025.9 |
| 20260906055105 | 57 | 200 | 1.7 | 2.6 | 0.00 | 0.00 | 0.00 | 89 | 1025.8 |
| 20260906054603 | 57 | 200 | 1.7 | 2.6 | 0.00 | 0.00 | 0.00 | 89 | 1025.8 |
| 20260906054104 | 57 | 200 | 0.9 | 2.6 | 0.00 | 0.00 | 0.00 | 89 | 1025.9 |
| 20260906051604 | 57 | 200 | 1.7 | 2.6 | 0.00 | 0.00 | 0.00 | 88 | 1025.8 |
| 20260906051105 | 57 | 200 | 1.7 | 2.6 | 0.00 | 0.00 | 0.00 | 88 | 1025.8 |
| 20260906044104 | 57 | 200 | 1.7 | 2.6 | 0.00 | 0.00 | 0.00 | 87 | 1025.6 |
| 20260906043604 | 57 | 200 | 1.7 | 2.6 | 0.00 | 0.00 | 0.00 | 87 | 1025.6 |
| 20260906043104 | 57 | 200 | 0.9 | 2.6 | 0.00 | 0.00 | 0.00 | 87 | 1025.6 |
| 20260906042603 | 57 | 200 | 1.7 | 2.6 | 0.00 | 0.00 | 0.00 | 87 | 1025.9 |
| 20260906035603 | 57 | 201 | 1.7 | 2.6 | 0.00 | 0.00 | 0.00 | 87 | 1025.9 |
| 20260906035104 | 57 | 201 | 1.7 | 2.6 | 0.00 | 0.00 | 0.00 | 87 | 1026.1 |
| 20260906034603 | 57 | 201 | 2.6 | 4.3 | 0.00 | 0.00 | 0.00 | 88 | 1026.1 |
| 20260906034104 | 57 | 301 | 1.7 | 4.3 | 0.00 | 0.00 | 0.00 | 88 | 1026.1 |
| 20260906032103 | 57 | 303 | 0.0 | 0.9 | 0.00 | 0.00 | 0.00 | 88 | 1026.1 |
| 20260906031603 | 57 | 303 | 0.0 | 2.6 | 0.00 | 0.00 | 0.00 | 88 | 1026.1 |
| 20260906031103 | 57 | 303 | 0.9 | 2.6 | 0.00 | 0.00 | 0.00 | 88 | 1026.2 |
| 20260906025603 | 57 | 303 | 0.9 | 2.6 | 0.00 | 0.00 | 0.00 | 88 | 1026.2 |
| 20260906025103 | 57 | 303 | 0.9 | 1.7 | 0.00 | 0.00 | 0.00 | 88 | 1026.2 |
| 20260906024603 | 57 | 303 | 0.0 | 2.6 | 0.00 | 0.00 | 0.00 | 88 | 1026.2 |
| 20260906024103 | 57 | 303 | 0.9 | 2.6 | 0.00 | 0.00 | 0.00 | 88 | 1026.5 |
| 20260906022104 | 57 | 303 | 0.9 | 2.6 | 0.00 | 0.00 | 0.00 | 89 | 1026.7 |
| 20260906021603 | 57 | 303 | 0.0 | 2.6 | 0.00 | 0.00 | 0.00 | 89 | 1026.7 |
| 20260906015603 | 57 | 303 | 0.0 | 0.0 | 0.00 | 0.00 | 0.00 | 89 | 1026.7 |
| 20260906015104 | 57 | 303 | 0.0 | 0.0 | 0.00 | 0.00 | 0.00 | 89 | 1026.7 |
| 20260906014603 | 57 | 303 | 0.0 | 0.0 | 0.00 | 0.00 | 0.00 | 89 | 1026.7 |
| 20260906014104 | 57 | 303 | 0.0 | 0.0 | 0.00 | 0.00 | 0.00 | 89 | 1026.6 |
| 20260906013603 | 57 | 303 | 0.0 | 0.0 | 0.00 | 0.00 | 0.00 | 88 | 1026.6 |
| 20260906013104 | 57 | 303 | 0.0 | 1.7 | 0.00 | 0.00 | 0.00 | 88 | 1026.5 |
| 20260906012603 | 57 | 303 | 0.0 | 1.7 | 0.00 | 0.00 | 0.00 | 89 | 1026.6 |
| 20260906005603 | 57 | 303 | 0.9 | 1.7 | 0.00 | 0.00 | 0.00 | 89 | 1026.7 |
| 20260906003104 | 58 | 303 | 0.0 | 0.0 | 0.00 | 0.00 | 0.00 | 89 | 1026.6 |
| 20260906002603 | 58 | 303 | 0.0 | 0.0 | 0.00 | 0.00 | 0.00 | 89 | 1026.6 |
| 20260906001104 | 58 | 303 | 0.0 | 1.7 | 0.00 | 0.00 | 0.00 | 88 | 1026.6 |
| 20260905233104 | 58 | 303 | 0.0 | 1.7 | 0.00 | 0.00 | 0.00 | 88 | 1026.5 |
| 20260905232603 | 58 | 303 | 0.0 | 0.9 | 0.00 | 0.00 | 0.00 | 88 | 1026.5 |
| 20260905231104 | 58 | 303 | 0.9 | 1.7 | 0.00 | 0.00 | 0.00 | 88 | 1026.6 |
| 20260905221602 | 58 | 303 | 0.0 | 0.9 | 0.00 | 0.00 | 0.00 | 87 | 1026.2 |
| 20260905221104 | 58 | 303 | 0.0 | 1.7 | 0.00 | 0.00 | 0.00 | 87 | 1026.1 |
| 20260905213602 | 58 | 303 | 0.0 | 0.0 | 0.00 | 0.00 | 0.00 | 87 | 1026.0 |
| 20260905213103 | 58 | 303 | 0.0 | 0.0 | 0.00 | 0.00 | 0.00 | 86 | 1026.1 |
| 20260905212602 | 59 | 303 | 0.0 | 0.0 | 0.00 | 0.00 | 0.00 | 86 | 1026.1 |
| 20260905212103 | 59 | 303 | 0.0 | 0.0 | 0.00 | 0.00 | 0.00 | 86 | 1026.1 |
| 20260905204602 | 60 | 303 | 0.0 | 0.0 | 0.00 | 0.00 | 0.00 | 84 | 1025.9 |
| 20260905204103 | 60 | 303 | 0.0 | 0.0 | 0.00 | 0.00 | 0.00 | 84 | 1025.9 |
| 20260905203103 | 60 | 303 | 0.0 | 0.0 | 0.00 | 0.00 | 0.00 | 84 | 1026.0 |
| 20260905202603 | 60 | 303 | 0.0 | 0.0 | 0.00 | 0.00 | 0.00 | 84 | 1026.0 |
| 20260905202103 | 60 | 303 | 0.0 | 0.0 | 0.00 | 0.00 | 0.00 | 83 | 1025.9 |
| 20260905195602 | 61 | 303 | 0.0 | 0.0 | 0.00 | 0.00 | 0.00 | 81 | 1025.7 |
| 20260905193603 | 62 | 303 | 0.0 | 0.0 | 0.00 | 0.00 | 0.00 | 79 | 1025.6 |
| 20260905193103 | 62 | 303 | 0.0 | 0.0 | 0.00 | 0.00 | 0.00 | 78 | 1025.6 |
| 20260905191602 | 63 | 303 | 0.0 | 0.0 | 0.00 | 0.00 | 0.00 | 76 | 1025.6 |
| 20260905191104 | 63 | 303 | 0.0 | 0.9 | 0.00 | 0.00 | 0.00 | 76 | 1025.5 |
| 20260905185602 | 64 | 303 | 0.0 | 0.9 | 0.00 | 0.00 | 0.00 | 74 | 1025.5 |
| 20260905185103 | 64 | 303 | 0.9 | 0.9 | 0.00 | 0.00 | 0.00 | 73 | 1025.5 |
| 20260905184603 | 64 | 303 | 0.0 | 1.7 | 0.00 | 0.00 | 0.00 | 73 | 1025.4 |
| 20260905184102 | 64 | 303 | 0.9 | 2.6 | 0.00 | 0.00 | 0.00 | 73 | 1025.4 |
| 20260905183602 | 64 | 303 | 1.7 | 2.6 | 0.00 | 0.00 | 0.00 | 73 | 1025.3 |
| 20260905183103 | 65 | 303 | 0.9 | 2.6 | 0.00 | 0.00 | 0.00 | 73 | 1025.3 |
| 20260905182602 | 65 | 303 | 0.9 | 2.6 | 0.00 | 0.00 | 0.00 | 72 | 1025.4 |
| 20260905182103 | 65 | 303 | 0.9 | 2.6 | 0.00 | 0.00 | 0.00 | 72 | 1025.1 |
| 20260905181602 | 65 | 303 | 0.0 | 0.0 | 0.00 | 0.00 | 0.00 | 72 | 1025.2 |
| 20260905181104 | 65 | 303 | 0.0 | 2.6 | 0.00 | 0.00 | 0.00 | 72 | 1025.2 |
| 20260905173103 | 65 | 303 | 3.5 | 6.1 | 0.00 | 0.00 | 0.00 | 69 | 1025.1 |
| 20260905165102 | 66 | 310 | 5.2 | 10.4 | 0.00 | 0.00 | 0.00 | 69 | 1025.1 |
| 20260905164602 | 65 | 312 | 3.5 | 6.1 | 0.00 | 0.00 | 0.00 | 69 | 1024.8 |
| 20260905164102 | 65 | 315 | 4.3 | 7.0 | 0.00 | 0.00 | 0.00 | 69 | 1024.8 |
| 20260905162103 | 66 | 310 | 5.2 | 11.3 | 0.00 | 0.00 | 0.00 | 67 | 1024.7 |
| 20260905161601 | 66 | 314 | 5.2 | 10.4 | 0.00 | 0.00 | 0.00 | 66 | 1024.6 |
| 20260905161102 | 66 | 291 | 4.3 | 13.9 | 0.00 | 0.00 | 0.00 | 66 | 1024.6 |
| 20260905155602 | 67 | 291 | 4.3 | 10.4 | 0.00 | 0.00 | 0.00 | 67 | 1024.5 |
| 20260905155103 | 66 | 285 | 5.2 | 10.4 | 0.00 | 0.00 | 0.00 | 68 | 1024.4 |
| 20260905154602 | 66 | 269 | 3.5 | 7.8 | 0.00 | 0.00 | 0.00 | 68 | 1024.3 |
| 20260905154102 | 66 | 296 | 4.3 | 8.7 | 0.00 | 0.00 | 0.00 | 68 | 1024.2 |
| 20260905153602 | 66 | 303 | 3.5 | 6.1 | 0.00 | 0.00 | 0.00 | 68 | 1024.1 |
| 20260905153102 | 66 | 307 | 5.2 | 11.3 | 0.00 | 0.00 | 0.00 | 68 | 1024.1 |
| 20260905152601 | 66 | 306 | 6.1 | 12.2 | 0.00 | 0.00 | 0.00 | 67 | 1024.1 |
| 20260905151602 | 66 | 292 | 6.1 | 11.3 | 0.00 | 0.00 | 0.00 | 67 | 1024.0 |
| 20260905151102 | 66 | 300 | 6.1 | 13.9 | 0.00 | 0.00 | 0.00 | 66 | 1024.0 |
| 20260905145601 | 66 | 304 | 7.0 | 12.2 | 0.00 | 0.00 | 0.00 | 67 | 1024.0 |
| 20260905145103 | 66 | 303 | 7.8 | 15.6 | 0.00 | 0.00 | 0.00 | 67 | 1023.9 |
| 20260905144601 | 66 | 310 | 6.1 | 10.4 | 0.00 | 0.00 | 0.00 | 67 | 1023.9 |
| 20260905144102 | 66 | 299 | 7.8 | 11.3 | 0.00 | 0.00 | 0.00 | 67 | 1023.9 |
| 20260905143602 | 66 | 302 | 6.1 | 13.9 | 0.00 | 0.00 | 0.00 | 66 | 1023.8 |
| 20260905143102 | 66 | 318 | 7.8 | 13.0 | 0.00 | 0.00 | 0.00 | 67 | 1023.6 |
| 20260905142602 | 66 | 299 | 5.2 | 12.2 | 0.00 | 0.00 | 0.00 | 68 | 1023.6 |
| 20260905142102 | 66 | 322 | 6.1 | 15.6 | 0.00 | 0.00 | 0.00 | 67 | 1023.6 |
| 20260905141601 | 66 | 295 | 5.2 | 11.3 | 0.00 | 0.00 | 0.00 | 67 | 1023.6 |
| 20260905141103 | 66 | 305 | 6.1 | 12.2 | 0.00 | 0.00 | 0.00 | 66 | 1023.5 |
| 20260905135601 | 66 | 297 | 7.0 | 11.3 | 0.00 | 0.00 | 0.00 | 68 | 1023.5 |
| 20260905134103 | 67 | 290 | 6.1 | 13.0 | 0.00 | 0.00 | 0.00 | 67 | 1023.4 |
| 20260905132602 | 67 | 280 | 6.1 | 13.9 | 0.00 | 0.00 | 0.00 | 67 | 1023.1 |
| 20260905132102 | 67 | 298 | 6.1 | 17.4 | 0.00 | 0.00 | 0.00 | 65 | 1023.1 |
| 20260905131602 | 66 | 278 | 5.2 | 11.3 | 0.00 | 0.00 | 0.00 | 68 | 1023.1 |
| 20260905131102 | 66 | 276 | 7.8 | 15.6 | 0.00 | 0.00 | 0.00 | 69 | 1023.0 |
| 20260905123602 | 66 | 303 | 9.6 | 15.6 | 0.00 | 0.00 | 0.00 | 69 | 1022.7 |